Demopolis Municipal Airport, AL

9:10 PM CST on December 11, 2017 (GMT -0600)
Demopolis Municipal Airport

Weather History for KDYA - January, 2014

Change the Weather History Date:

Sunday, January 5, 2014

  Actual Average (KNMM) Record (KNMM)
Temperature  
Mean Temperature 47 °F -  
Max Temperature 63 °F 55 °F 72 °F (2005)
Min Temperature 31 °F 37 °F 10 °F (1999)
Degree Days  
Heating Degree Days 18    
Moisture  
Dew Point 42 °F    
Average Humidity 84    
Maximum Humidity 100    
Minimum Humidity 61    
Precipitation  
Precipitation 0.00 in - - ()
Sea Level Pressure  
Sea Level Pressure 29.98 in    
Wind  
Wind Speed 2 mph (West)    
Max Wind Speed 20 mph    
Max Gust Speed 36 mph    
Visibility 10 miles    
Events Rain    
Averages and records for this station are not official NWS values.
T = Trace of Precipitation, MM = Missing Value Source: NWS Daily Summary

Daily Weather History Graph

Daily Weather History Graph

Search for Another Location

Airport or City:

Trip Planner

Search our weather history database for the weather conditions in past years. The results will help you decide how hot, cold, wet, or windy it might be!

Date:

Astronomy

Jan. 05, 2014 Rise Set
Actual Time 6:54 AM CST 5:00 PM CST
Civil Twilight 6:27 AM CST 5:27 PM CST
Nautical Twilight 5:56 AM CST 5:58 PM CST
Astronomical Twilight 5:26 AM CST 6:27 PM CST
Moon 9:53 AM CST (1/5) 10:08 PM CST (1/5)
Length of Visible Light 11h 00m
Length of Day
10h 06m
Waxing Crescent, 25% of the Moon is Illuminated
Jan 5
Waxing Crescent
Jan 7
First Quarter
Jan 15
Full
Jan 23
Last Quarter
Jan 30
New

Hourly Weather History & Observations

Time (CST) Temp. Windchill Dew Point Humidity Pressure Visibility Wind Dir Wind Speed Gust Speed Precip Events Conditions
12:15 AM 36.9 °F - 36.9 °F 100% 30.10 in 10.0 mi Calm Calm - N/A   Clear
12:35 AM 36.1 °F - 36.1 °F 100% 30.09 in 10.0 mi Calm Calm - N/A   Clear
12:55 AM 36.5 °F - 36.5 °F 100% 30.10 in 10.0 mi Calm Calm - N/A   Mostly Cloudy
1:15 AM 37.4 °F - 37.4 °F 100% 30.11 in 10.0 mi Calm Calm - N/A   Overcast
1:35 AM 37.6 °F - 36.3 °F 95% 30.11 in 10.0 mi Calm Calm - N/A   Overcast
1:55 AM 37.9 °F - 34.5 °F 87% 30.10 in 10.0 mi Calm Calm - N/A   Overcast
2:15 AM 37.9 °F - 33.6 °F 84% 30.09 in 10.0 mi Calm Calm - N/A   Overcast
2:35 AM 38.3 °F - 33.4 °F 83% 30.09 in 10.0 mi Calm Calm - N/A   Overcast
2:55 AM 38.5 °F - 32.9 °F 80% 30.09 in 10.0 mi Calm Calm - N/A   Overcast
3:15 AM 38.7 °F - 32.9 °F 80% 30.08 in 10.0 mi Calm Calm - N/A   Overcast
3:35 AM 38.7 °F - 32.9 °F 80% 30.07 in 10.0 mi Calm Calm - N/A   Overcast
3:55 AM 38.8 °F - 33.8 °F 82% 30.07 in 10.0 mi Calm Calm - N/A   Overcast
4:15 AM 38.8 °F - 33.8 °F 82% 30.06 in 10.0 mi Calm Calm - N/A   Overcast
4:35 AM 39.2 °F - 33.8 °F 81% 30.05 in 10.0 mi Calm Calm - N/A   Overcast
4:55 AM 39.4 °F - 33.8 °F 80% 30.05 in 10.0 mi Calm Calm - N/A   Overcast
5:15 AM 39.6 °F - 34.0 °F 80% 30.05 in 10.0 mi Calm Calm - N/A   Overcast
5:35 AM 40.1 °F - 34.5 °F 80% 30.04 in 10.0 mi Calm Calm - N/A   Overcast
5:55 AM 41.2 °F - 34.7 °F 78% 30.04 in 10.0 mi Calm Calm - N/A   Overcast
6:15 AM 41.5 °F - 34.9 °F 77% 30.04 in 10.0 mi Calm Calm - N/A   Overcast
6:35 AM 41.7 °F - 35.2 °F 78% 30.03 in 10.0 mi Calm Calm - N/A   Overcast
6:55 AM 41.9 °F - 35.8 °F 79% 30.04 in 10.0 mi Calm Calm - N/A   Overcast
7:15 AM 42.3 °F - 36.1 °F 79% 30.04 in 10.0 mi Calm Calm - N/A   Overcast
7:35 AM 42.8 °F - 36.5 °F 78% 30.04 in 10.0 mi Calm Calm - N/A   Overcast
7:55 AM 43.2 °F - 37.2 °F 80% 30.02 in 10.0 mi Calm Calm - N/A   Light Drizzle
8:15 AM 43.7 °F - 37.8 °F 80% 30.03 in 10.0 mi Calm Calm - N/A Rain Light Rain
8:35 AM 43.9 °F - 39.2 °F 84% 30.03 in 10.0 mi Calm Calm - N/A   Overcast
8:55 AM 43.7 °F - 41.9 °F 93% 30.03 in 5.0 mi Calm Calm - N/A Rain Heavy Rain
9:15 AM 43.7 °F - 43.7 °F 100% 30.04 in 10.0 mi Calm Calm - N/A Rain Light Rain
9:35 AM 44.6 °F - 44.6 °F 100% 30.02 in 10.0 mi Calm Calm - N/A   Overcast
9:55 AM 45.9 °F - 45.9 °F 100% 30.02 in 10.0 mi Calm Calm - N/A   Overcast
10:15 AM 46.6 °F - 46.6 °F 100% 30.02 in 10.0 mi Calm Calm - N/A   Overcast
10:35 AM 47.1 °F - 47.1 °F 100% 30.00 in 10.0 mi Calm Calm - N/A   Overcast
10:55 AM 47.8 °F - 47.8 °F 100% 29.99 in 10.0 mi Calm Calm - N/A   Overcast
11:15 AM 48.9 °F - 48.7 °F 99% 29.97 in 10.0 mi Calm Calm - N/A   Overcast
11:35 AM 49.6 °F - 44.2 °F 82% 29.95 in 10.0 mi Calm Calm - N/A   Overcast
11:55 AM 50.4 °F - 44.2 °F 80% 29.94 in 10.0 mi Calm Calm - N/A   Overcast
12:15 PM 50.5 °F - 43.9 °F 78% 29.93 in 10.0 mi Calm Calm - N/A   Overcast
12:35 PM 52.7 °F - 45.5 °F 76% 29.91 in 10.0 mi Calm Calm - N/A   Unknown
12:55 PM 54.1 °F - 46.2 °F 75% 29.89 in 10.0 mi Calm Calm - N/A   Overcast
1:15 PM 55.4 °F - 47.1 °F 74% 29.88 in 10.0 mi Calm Calm - N/A   Overcast
1:35 PM 57.6 °F - 48.2 °F 71% 29.86 in 10.0 mi Calm Calm - N/A   Mostly Cloudy
1:55 PM 58.5 °F - 48.9 °F 71% 29.84 in 10.0 mi SSE 11.5 mph - N/A   Mostly Cloudy
2:15 PM 61.2 °F - 49.6 °F 66% 29.84 in 10.0 mi SSE 8.1 mph - N/A   Scattered Clouds
2:35 PM 63.5 °F - 50.0 °F 61% 29.83 in 10.0 mi South 3.5 mph 18.4 mph N/A   Clear
2:55 PM 63.5 °F - 50.2 °F 62% 29.82 in 10.0 mi South 12.7 mph 17.3 mph N/A   Clear
3:15 PM 63.5 °F - 50.2 °F 62% 29.82 in 10.0 mi South 10.4 mph 17.3 mph N/A   Scattered Clouds
3:35 PM 63.5 °F - 50.4 °F 62% 29.81 in 10.0 mi South 12.7 mph 16.1 mph N/A   Mostly Cloudy
3:55 PM 63.3 °F - 50.5 °F 63% 29.81 in 10.0 mi South 12.7 mph 18.4 mph N/A   Scattered Clouds
4:15 PM 62.8 °F - 50.9 °F 65% 29.81 in 10.0 mi South 8.1 mph 19.6 mph N/A   Scattered Clouds
4:35 PM 62.6 °F - 51.1 °F 66% 29.81 in 10.0 mi Calm Calm - N/A   Scattered Clouds
4:55 PM 62.1 °F - 51.3 °F 68% 29.81 in 10.0 mi SSE 8.1 mph - N/A   Mostly Cloudy
5:15 PM 61.7 °F - 51.8 °F 70% 29.80 in 10.0 mi Calm Calm - N/A   Mostly Cloudy
5:35 PM 60.8 °F - 52.2 °F 73% 29.79 in 10.0 mi Calm Calm - N/A Rain Light Rain
5:55 PM 61.0 °F - 52.3 °F 73% 29.80 in 10.0 mi Calm Calm - N/A   Overcast
6:15 PM 61.0 °F - 52.5 °F 74% 29.80 in 10.0 mi Calm Calm - N/A   Overcast
6:35 PM 60.8 °F - 53.1 °F 76% 29.81 in 10.0 mi Calm Calm - N/A   Drizzle
6:55 PM 53.4 °F - 53.4 °F 100% 29.87 in 5.0 mi West 13.8 mph 26.5 mph N/A Rain Light Rain
7:15 PM 50.4 °F - 50.4 °F 100% 29.89 in 5.0 mi WNW 13.8 mph 28.8 mph N/A   Drizzle
7:35 PM 48.2 °F - 48.2 °F 100% 29.91 in 10.0 mi WNW 17.3 mph 25.3 mph N/A Rain Rain
7:55 PM 46.8 °F - 46.8 °F 100% 29.95 in 5.0 mi WNW 11.5 mph 17.3 mph N/A   Drizzle
8:15 PM 45.1 °F 37.9 °F 45.1 °F 100% 29.96 in 5.0 mi WNW 17.3 mph 25.3 mph N/A Rain Heavy Rain
8:35 PM 43.9 °F 37.2 °F 43.9 °F 100% 29.97 in 7.0 mi WNW 13.8 mph 23.0 mph N/A Rain Rain
8:55 PM 43.3 °F 38.1 °F 43.3 °F 100% 29.99 in 10.0 mi WNW 9.2 mph 19.6 mph N/A   Drizzle
9:15 PM 40.5 °F 31.2 °F 40.5 °F 100% 30.01 in 10.0 mi WNW 19.6 mph 35.7 mph N/A   Light Drizzle
9:35 PM 39.2 °F 33.6 °F 39.2 °F 100% 30.03 in 10.0 mi NW 8.1 mph 21.9 mph N/A   Overcast
9:55 PM 37.0 °F 30.4 °F 37.0 °F 100% 30.06 in 10.0 mi NW 9.2 mph 24.2 mph N/A   Overcast
10:15 PM 35.2 °F 28.8 °F 35.2 °F 100% 30.07 in 10.0 mi NW 8.1 mph 20.7 mph N/A   Overcast
10:35 PM 33.8 °F 22.5 °F 33.8 °F 100% 30.09 in 10.0 mi NW 19.6 mph 25.3 mph N/A   Overcast
10:55 PM 32.0 °F 20.8 °F 32.0 °F 100% 30.11 in 10.0 mi NW 17.3 mph 28.8 mph N/A   Overcast
11:15 PM 31.6 °F 20.4 °F 31.3 °F 99% 30.13 in 10.0 mi NW 17.3 mph 26.5 mph N/A   Overcast
11:35 PM 31.6 °F 26.0 °F 24.6 °F 75% 30.14 in 10.0 mi NW 5.8 mph 19.6 mph N/A   Overcast
11:55 PM 31.5 °F 22.9 °F 24.8 °F 76% 30.14 in 10.0 mi NW 10.4 mph 23.0 mph N/A   Overcast